{"data":{"norad_id":59237,"epoch":"2026-05-25T04:18:53.235648Z","epoch_age_seconds":55427,"freshness":"FRESH","line1":"1 59237U 24049G   26145.17978282 -.00000235  00000+0  10035-5 0  9991","line2":"2 59237  43.0083  71.6257 0001686 282.1081  77.9581 15.27568906124101","mean_motion":15.27568906,"eccentricity":0.0001686,"inclination_deg":43.0083,"raan_deg":71.6257,"arg_perigee_deg":282.1081,"mean_anomaly_deg":77.9581,"bstar":1.0035e-6,"rev_number":12410,"period_min":94.267433327816,"perigee_km":481.92551409112,"apogee_km":484.23911724437,"semimajor_km":6861.2193156677,"source":"CELESTRAK","updated_at":"2026-05-25T13:38:18.870178Z"}}